Regional Weather Roundup
Issued by NWS

Home | Current Version | Previous Version | Graphics & Text | Print | Product List | Glossary On
Versions: 1 2 3 4 5 6 7 8 9 10 11 12 13 14 15 16 17 18 19 20 21 22 23 24 25 26 27
000
ASUS45 KSLC 210010
RWRUT

UTAH REGIONAL WEATHER ROUNDUP
NATIONAL WEATHER SERVICE SALT LAKE CITY UT
600 PM MDT WED SEP 20 2017

UTZ001>011-023>025-210100-

NORTHERN UTAH

CITY           SKY/WX    TMP DP  RH WIND       PRES   REMARKS
BRIGHAM CITY   CLOUDY    68  30  24 NE7       29.71F
HILL AFB       PTSUNNY   69  34  28 N6        29.71F
LOGAN          CLOUDY    68  30  24 W3        29.72F
OGDEN          PTSUNNY   70  35  27 N5        29.69F
SALT LAKE CITY PTSUNNY   80  31  16 SW13      29.66F
TOOELE VALLEY  MOSUNNY   77  36  22 S12G18    29.66F
WENDOVER       CLOUDY    70  32  24 NE9       29.65F
HEBER CITY     MOSUNNY   72  32  23 SW3G17    29.76F
WEST JORDAN    MOSUNNY   76  46  34 S22G30    29.70F

$$

UTZ011>015-024>027-210100-

CENTRAL/NORTHEAST UTAH

CITY           SKY/WX    TMP DP  RH WIND       PRES   REMARKS
PROVO AIRPORT  PTSUNNY   76  38  25 E5        29.71F
MOAB/CANYONLAN SUNNY     83  29  14 SW20G29   29.75F
DELTA          SUNNY     79  30  17 S28G39    29.71F
PRICE          MOSUNNY   75  34  22 S14       29.80F
ROOSEVELT      CLOUDY    72  36  26 N7        29.80F
VERNAL         SUNNY     70  38  31 SW7       29.78F

$$

UTZ013>016-019>022-027-210100-

SOUTHERN UTAH

CITY           SKY/WX    TMP DP  RH WIND       PRES   REMARKS
BRYCE CANYON   SUNNY     68  29  23 S18G30    30.00F
CEDAR CITY     SUNNY     74  34  23 SW25G36   29.84F
MILFORD        SUNNY     77  36  22 SW28G37   29.76F
ST GEORGE      PTCLDY    88  37  16 SW13      29.71F
HANKSVILLE     SUNNY     82  32  16 S16G26    29.77F
BLANDING         N/A     77  26  15 SW13G26   29.98F

$$

REGIONAL REPORTS     COLORADO/ARIZONA

CITY           SKY/WX    TMP DP  RH WIND       PRES   REMARKS
CRAIG, CO      MOSUNNY   74  28  18 SW21G31   29.85S
GRAND JUNCTION SUNNY     81  34  18 W3        29.78F
RIFLE, CO      SUNNY     78  33  19 W14       29.83S
MONTROSE, CO   SUNNY     78  27  15 SW18G25   29.90S
CORTEZ, CO     SUNNY     79  27  14 S15       29.95F
PAGE, AZ       SUNNY     86  27  11 SW10G22   29.77F
GRAND CANYON   SUNNY     73  27  18 SW28G39   30.01F
KINGMAN, AZ    SUNNY     83  43  24 SW25G33   29.82F
FLAGSTAFF, AZ  SUNNY     68  29  23 SW23G36   30.08S

$$

REGIONAL REPORTS    NEVADA/IDAHO/WYOMING

CITY           SKY/WX    TMP DP  RH WIND       PRES   REMARKS
LAS VEGAS, NV  SUNNY     89  36  15 SW21G31   29.67R
ELY, NY        SUNNY     73  29  19 SW20G28   29.77F
ELKO, NV       LGT RAIN  63  33  32 W23G32    29.73F
POCATELLO, ID  CLOUDY    61  33  35 W17G39    29.72F
BURLEY, ID     CLOUDY    61  39  44 S8        29.69S
FORT BRIDGER,    N/A     65  29  26 W22G33    29.86F
EVANSTON, WY   CLOUDY    63  32  31 SW23G36   29.83F
ROCK SPRINGS,  MOSUNNY   59  29  31 W9        29.86S
KEMMERER, WY     N/A     54  30  40 W14       29.87S

$$




USA.gov is the U.S. government's official web portal to all federal, state and local government web resources and services.